IW0HP-13 Weather Reports


Display with metric or nautical units.
time (UTC)temp
F
wind
direction
speed
MPH
gust
MPH
rain 1hr
in
rain 24hr
in
rain mn
in
humidity
%
barometer
mb
20260507091247 70 0.0 0.0 0.00 0.00 0.00 50 1014.7
20260507085246 69 0.0 0.0 0.00 0.00 0.00 52 1014.7
20260507083246 69 0.0 0.0 0.00 0.00 0.00 52 1014.8
20260507081246 68 0.0 0.0 0.00 0.00 0.00 53 1015.0
20260507075246 67 0.0 0.0 0.00 0.00 0.00 55 1015.2
20260507073246 67 0.0 0.0 0.00 0.00 0.00 56 1015.1
20260507071245 67 0.0 0.0 0.00 0.00 0.00 57 1015.2
20260507065245 66 0.0 0.0 0.00 0.00 0.00 59 1015.2
20260507063243 66 0.0 0.0 0.00 0.00 0.00 60 1015.1
20260507061243 65 0.0 0.0 0.00 0.00 0.00 60 1014.9
20260507055243 64 0.0 0.0 0.00 0.00 0.00 63 1014.9
20260507051243 63 0.0 0.0 0.00 0.00 0.00 66 1014.9
20260507045243 62 0.0 0.0 0.00 0.00 0.00 67 1014.8
20260507043242 62 0.0 0.0 0.00 0.00 0.00 67 1014.7
20260507041242 62 0.0 0.0 0.00 0.00 0.00 67 1014.9
20260507035241 62 0.0 0.0 0.00 0.00 0.00 68 1014.7
20260507033241 62 0.0 0.0 0.00 0.00 0.00 67 1014.8
20260507031241 62 0.0 0.0 0.00 0.00 0.00 67 1014.7
20260507025241 62 0.0 0.0 0.00 0.00 0.00 68 1014.6
20260507023240 62 0.0 0.0 0.00 0.00 0.00 68 1014.8
20260507021240 62 0.0 0.0 0.00 0.00 0.00 68 1014.8
20260507015240 63 0.0 0.0 0.00 0.00 0.00 68 1014.8
20260507013240 63 0.0 0.0 0.00 0.00 0.00 68 1014.6
20260507011239 63 0.0 0.0 0.00 0.00 0.00 67 1014.6
20260507005239 63 0.0 0.0 0.00 0.00 0.00 66 1014.7
20260507003239 63 0.0 0.0 0.00 0.00 0.00 64 1014.8
20260507001239 64 0.0 0.0 0.00 0.00 0.00 61 1014.7
20260506235238 65 0.0 0.0 0.00 0.00 0.00 61 1014.7
20260506233238 65 0.0 0.0 0.00 0.00 0.00 63 1014.7
20260506231238 65 0.0 0.0 0.00 0.00 0.00 62 1014.4
20260506225238 65 0.0 0.0 0.00 0.00 0.00 61 1014.4
20260506223237 65 0.0 0.0 0.00 0.00 0.00 61 1014.4
20260506221237 66 0.0 0.0 0.00 0.00 0.00 60 1014.5
20260506215237 66 0.0 0.0 0.00 0.00 0.00 58 1014.5
20260506213236 66 0.0 0.0 0.00 0.00 0.00 57 1014.6
20260506211236 66 0.0 0.0 0.00 0.00 0.00 55 1014.6
20260506205236 67 0.0 0.0 0.00 0.00 0.00 53 1014.6
20260506203236 67 0.0 0.0 0.00 0.00 0.00 52 1014.7
20260506201235 67 0.0 0.0 0.00 0.00 0.00 51 1014.6
20260506195235 68 0.0 0.0 0.00 0.00 0.00 49 1014.5
20260506193235 68 0.0 0.0 0.00 0.00 0.00 50 1014.4
20260506191235 68 0.0 0.0 0.00 0.00 0.00 52 1014.3
20260506185235 68 0.0 0.0 0.00 0.00 0.00 53 1014.1
20260506183234 68 0.0 0.0 0.00 0.00 0.00 54 1014.0
20260506181234 68 0.0 0.0 0.00 0.00 0.00 52 1013.9
20260506175234 68 0.0 0.0 0.00 0.00 0.00 54 1013.8
20260506173234 68 0.0 0.0 0.00 0.00 0.00 55 1013.8
20260506171233 68 0.0 0.0 0.00 0.00 0.00 56 1013.8
20260506165233 68 0.0 0.0 0.00 0.00 0.00 51 1013.8
20260506163233 69 0.0 0.0 0.00 0.00 0.00 52 1013.7
20260506161233 69 0.0 0.0 0.00 0.00 0.00 50 1013.7
20260506155232 69 0.0 0.0 0.00 0.00 0.00 51 1013.8
20260506153232 70 0.0 0.0 0.00 0.00 0.00 48 1013.9
20260506151232 70 0.0 0.0 0.00 0.00 0.00 49 1013.8
20260506145231 71 0.0 0.0 0.00 0.00 0.00 47 1013.9
20260506143231 71 0.0 0.0 0.00 0.00 0.00 47 1013.9
20260506141231 71 0.0 0.0 0.00 0.00 0.00 47 1014.0
20260506135231 72 0.0 0.0 0.00 0.00 0.00 46 1013.8
20260506133230 72 0.0 0.0 0.00 0.00 0.00 46 1014.1
20260506131230 72 0.0 0.0 0.00 0.00 0.00 43 1013.9
20260506125230 73 0.0 0.0 0.00 0.00 0.00 42 1013.9
20260506123230 73 0.0 0.0 0.00 0.00 0.00 41 1013.8
20260506121229 74 0.0 0.0 0.00 0.00 0.00 41 1013.9
20260506115229 73 0.0 0.0 0.00 0.00 0.00 38 1013.6
20260506113229 73 0.0 0.0 0.00 0.00 0.00 38 1013.8
20260506111228 73 0.0 0.0 0.00 0.00 0.00 38 1013.9
20260506105228 72 0.0 0.0 0.00 0.00 0.00 38 1014.0
20260506103228 72 0.0 0.0 0.00 0.00 0.00 40 1014.4
20260506101228 71 0.0 0.0 0.00 0.00 0.00 41 1014.1
20260506095228 71 0.0 0.0 0.00 0.00 0.00 45 1014.3
20260506093227 70 0.0 0.0 0.00 0.00 0.00 47 1014.2